"read_dt","SO2 (ppb)","flags","PMT voltage (V)","lamp voltage (V)","lamp intensity (Hz)","internal temp (C)","react chamber temp (C)","sample flow (l/min)","pres (mmHg)","SO2 bkg (ppb)","SO2 coefficient"
2014-02-13 00:00:00,4780E-2,5C000490,-0724,1375,6526,026.5,045.3,0.000,774.6,01.15,0.508
2014-02-13 00:01:00,4773E-2,5C000490,-0724,1375,6577,026.5,045.3,0.000,774.6,01.15,0.508
2014-02-13 00:02:00,4793E-2,5C000490,-0724,1375,6564,026.5,045.3,0.000,774.6,01.15,0.508
2014-02-13 00:03:00,4768E-2,5C000490,-0724,1375,6597,026.5,045.2,0.000,774.6,01.15,0.508
2014-02-13 00:04:00,4778E-2,5C000490,-0724,1375,6540,026.5,045.2,0.000,774.6,01.15,0.508
2014-02-13 00:05:00,4738E-2,5C000490,-0724,1375,6459,026.5,045.3,0.000,774.6,01.15,0.508
2014-02-13 00:06:00,4728E-2,5C000490,-0724,1375,6483,026.5,045.3,0.000,774.6,01.15,0.508
2014-02-13 00:07:00,4730E-2,5C000490,-0724,1375,6465,026.5,045.3,0.000,774.6,01.15,0.508
2014-02-13 00:08:00,4751E-2,5C000490,-0724,1375,6503,026.5,045.3,0.000,774.6,01.15,0.508
2014-02-13 00:09:00,4729E-2,5C000490,-0724,1375,6358,026.5,045.3,0.000,774.6,01.15,0.508
2014-02-13 00:10:00,4735E-2,5C000490,-0724,1375,6424,026.5,045.2,0.000,774.6,01.15,0.508
2014-02-13 00:11:00,4703E-2,5C000490,-0724,1375,6465,026.5,045.2,0.000,774.6,01.15,0.508
2014-02-13 00:12:00,4689E-2,5C000490,-0724,1375,6467,026.5,045.3,0.000,774.6,01.15,0.508
2014-02-13 00:13:00,4764E-2,5C000490,-0724,1375,6369,026.5,045.2,0.000,774.5,01.15,0.508
2014-02-13 00:14:00,4779E-2,5C000490,-0724,1375,6375,026.4,045.2,0.000,774.6,01.15,0.508
2014-02-13 00:15:00,4731E-2,5C000490,-0724,1375,6397,026.4,045.2,0.000,774.6,01.15,0.508
2014-02-13 00:16:00,4758E-2,5C000490,-0724,1375,6522,026.4,045.2,0.000,774.6,01.15,0.508
2014-02-13 00:17:00,4742E-2,5C000490,-0724,1375,6407,026.5,045.3,0.000,774.5,01.15,0.508
2014-02-13 00:18:00,4743E-2,5C000490,-0724,1376,6373,026.5,045.3,0.000,774.5,01.15,0.508
2014-02-13 00:19:00,4798E-2,5C000490,-0724,1375,6233,026.5,045.3,0.000,774.5,01.15,0.508
2014-02-13 00:20:00,4709E-2,5C000490,-0724,1376,6461,026.5,045.3,0.000,774.5,01.15,0.508
2014-02-13 00:21:00,4717E-2,5C000490,-0724,1376,6432,026.5,045.3,0.000,774.5,01.15,0.508
2014-02-13 00:22:00,4742E-2,5C000490,-0724,1376,6414,026.5,045.3,0.000,774.5,01.15,0.508
2014-02-13 00:23:00,4817E-2,5C000490,-0724,1376,6359,026.5,045.3,0.000,774.5,01.15,0.508
2014-02-13 00:24:00,4729E-2,5C000490,-0724,1376,6303,026.5,045.2,0.000,774.6,01.15,0.508
2014-02-13 00:25:00,4730E-2,5C000490,-0724,1376,6341,026.5,045.3,0.000,774.5,01.15,0.508
2014-02-13 00:26:00,4679E-2,5C000490,-0724,1376,6320,026.4,045.3,0.000,774.6,01.15,0.508
2014-02-13 00:27:00,4739E-2,5C000490,-0724,1376,6330,026.4,045.2,0.000,774.6,01.15,0.508
2014-02-13 00:28:00,4694E-2,5C000490,-0724,1376,6391,026.5,045.2,0.000,774.6,01.15,0.508
2014-02-13 00:29:00,4814E-2,5C000490,-0724,1376,6371,026.4,045.2,0.000,774.6,01.15,0.508
2014-02-13 00:30:00,4733E-2,5C000490,-0724,1376,6386,026.5,045.3,0.000,774.6,01.15,0.508
2014-02-13 00:31:00,4797E-2,5C000490,-0724,1376,6286,026.4,045.3,0.000,774.6,01.15,0.508
2014-02-13 00:32:00,4708E-2,5C000490,-0724,1376,6340,026.4,045.2,0.000,774.6,01.15,0.508
2014-02-13 00:33:00,4787E-2,5C000490,-0724,1376,6346,026.4,045.2,0.000,774.6,01.15,0.508
2014-02-13 00:34:00,4770E-2,5C000490,-0724,1376,6321,026.4,045.3,0.000,774.6,01.15,0.508
2014-02-13 00:35:00,4723E-2,5C000490,-0724,1376,6319,026.4,045.3,0.000,774.6,01.15,0.508
2014-02-13 00:36:00,4756E-2,5C000490,-0724,1376,6256,026.4,045.2,0.000,774.6,01.15,0.508
2014-02-13 00:37:00,4731E-2,5C000490,-0724,1376,6290,026.4,045.3,0.000,774.6,01.15,0.508
2014-02-13 00:38:00,4734E-2,5C000490,-0724,1376,6303,026.4,045.3,0.000,774.7,01.15,0.508
2014-02-13 00:39:00,4730E-2,5C000490,-0724,1376,6314,026.5,045.2,0.000,774.7,01.15,0.508
2014-02-13 00:40:00,4767E-2,5C000490,-0724,1376,6214,026.4,045.3,0.000,774.7,01.15,0.508
2014-02-13 00:41:00,4736E-2,5C000490,-0724,1376,6200,026.4,045.2,0.000,774.7,01.15,0.508
2014-02-13 00:42:00,4749E-2,5C000490,-0724,1376,6152,026.4,045.3,0.000,774.7,01.15,0.508
2014-02-13 00:43:00,4645E-2,5C000490,-0724,1376,6167,026.4,045.2,0.000,774.7,01.15,0.508
2014-02-13 00:44:00,4703E-2,5C000490,-0724,1376,6198,026.4,045.2,0.000,774.7,01.15,0.508
2014-02-13 00:45:00,4710E-2,5C000490,-0724,1376,6197,026.4,045.3,0.000,774.7,01.15,0.508
2014-02-13 00:46:00,4744E-2,5C000490,-0724,1376,6175,026.4,045.2,0.000,774.7,01.15,0.508
2014-02-13 00:47:00,4714E-2,5C000490,-0724,1376,6061,026.5,045.3,0.000,774.7,01.15,0.508
2014-02-13 00:48:00,4692E-2,5C000490,-0724,1376,6223,026.4,045.2,0.000,774.7,01.15,0.508
2014-02-13 00:49:00,4714E-2,5C000490,-0724,1376,6113,026.4,045.2,0.000,774.7,01.15,0.508
2014-02-13 00:50:00,4688E-2,5C000490,-0724,1376,6248,026.4,045.2,0.000,774.7,01.15,0.508
2014-02-13 00:51:00,4645E-2,5C000490,-0724,1376,6155,026.4,045.3,0.000,774.7,01.15,0.508
2014-02-13 00:52:00,4674E-2,5C000490,-0724,1376,6239,026.4,045.3,0.000,774.7,01.15,0.508
2014-02-13 00:53:00,4734E-2,5C000490,-0724,1376,6212,026.4,045.3,0.000,774.7,01.15,0.508
2014-02-13 00:54:00,4727E-2,5C000490,-0724,1376,6207,026.4,045.2,0.000,774.7,01.15,0.508
2014-02-13 00:55:00,4710E-2,5C000490,-0724,1376,6183,026.4,045.2,0.000,774.7,01.15,0.508
2014-02-13 00:56:00,4731E-2,5C000490,-0724,1376,6195,026.4,045.3,0.000,774.6,01.15,0.508
2014-02-13 00:57:00,4698E-2,5C000490,-0724,1376,6037,026.4,045.2,0.000,774.6,01.15,0.508
2014-02-13 00:58:00,4626E-2,5C000490,-0724,1376,6082,026.4,045.2,0.000,774.6,01.15,0.508
2014-02-13 00:59:00,4678E-2,5C000490,-0724,1376,6110,026.4,045.3,0.000,774.6,01.15,0.508
2014-02-13 01:00:00,4682E-2,5C000490,-0724,1376,6073,026.4,045.3,0.000,774.6,01.15,0.508
2014-02-13 01:01:00,4689E-2,5C000490,-0724,1376,6118,026.4,045.3,0.000,774.6,01.15,0.508
2014-02-13 01:02:00,4675E-2,5C000490,-0724,1376,6111,026.4,045.3,0.000,774.6,01.15,0.508
2014-02-13 01:03:00,4675E-2,5C000490,-0724,1376,6036,026.4,045.3,0.000,774.6,01.15,0.508
2014-02-13 01:04:00,4689E-2,5C000490,-0724,1376,6050,026.4,045.2,0.000,774.6,01.15,0.508
2014-02-13 01:05:00,4705E-2,5C000490,-0724,1376,5971,026.4,045.2,0.000,774.6,01.15,0.508
2014-02-13 01:06:00,4709E-2,5C000490,-0724,1376,6073,026.4,045.2,0.000,774.5,01.15,0.508
2014-02-13 01:07:00,4699E-2,5C000490,-0724,1376,6023,026.4,045.3,0.000,774.5,01.15,0.508
2014-02-13 01:08:00,4648E-2,5C000490,-0724,1376,5977,026.4,045.2,0.000,774.5,01.15,0.508
2014-02-13 01:09:00,4657E-2,5C000490,-0724,1376,5978,026.4,045.3,0.000,774.5,01.15,0.508
2014-02-13 01:10:00,4685E-2,5C000490,-0724,1376,6037,026.4,045.3,0.000,774.4,01.15,0.508
2014-02-13 01:11:00,4668E-2,5C000490,-0724,1376,5989,026.4,045.3,0.000,774.4,01.15,0.508
2014-02-13 01:12:00,4667E-2,5C000490,-0724,1376,6098,026.4,045.3,0.000,774.4,01.15,0.508
2014-02-13 01:13:00,4673E-2,5C000490,-0724,1376,6074,026.4,045.2,0.000,774.4,01.15,0.508
2014-02-13 01:14:00,4696E-2,5C000490,-0724,1376,6008,026.4,045.2,0.000,774.4,01.15,0.508
2014-02-13 01:15:00,4650E-2,5C000490,-0724,1376,6037,026.4,045.2,0.000,774.4,01.15,0.508
2014-02-13 01:16:00,4649E-2,5C000490,-0724,1376,6119,026.4,045.2,0.000,774.4,01.15,0.508
2014-02-13 01:17:00,4692E-2,5C000490,-0724,1376,6060,026.4,045.2,0.000,774.4,01.15,0.508
2014-02-13 01:18:00,4640E-2,5C000490,-0724,1376,6034,026.4,045.3,0.000,774.4,01.15,0.508
2014-02-13 01:19:00,4666E-2,5C000490,-0724,1376,6065,026.4,045.2,0.000,774.4,01.15,0.508
2014-02-13 01:20:00,4763E-2,5C000490,-0724,1376,6109,026.4,045.2,0.000,774.4,01.15,0.508
2014-02-13 01:21:00,4665E-2,5C000490,-0724,1376,6109,026.5,045.2,0.000,774.4,01.15,0.508
2014-02-13 01:22:00,4664E-2,5C000490,-0724,1376,6147,026.4,045.3,0.000,774.4,01.15,0.508
2014-02-13 01:23:00,4721E-2,5C000490,-0724,1376,6143,026.4,045.3,0.000,774.4,01.15,0.508
2014-02-13 01:24:00,4627E-2,5C000490,-0724,1376,6077,026.4,045.3,0.000,774.4,01.15,0.508
2014-02-13 01:25:00,4668E-2,5C000490,-0724,1376,6130,026.5,045.3,0.000,774.4,01.15,0.508
2014-02-13 01:26:00,4615E-2,5C000490,-0724,1376,6084,026.5,045.2,0.000,774.4,01.15,0.508
2014-02-13 01:27:00,4683E-2,5C000490,-0724,1376,6135,026.4,045.2,0.000,774.4,01.15,0.508
2014-02-13 01:28:00,4679E-2,5C000490,-0724,1376,6136,026.5,045.3,0.000,774.4,01.15,0.508
2014-02-13 01:29:00,4683E-2,5C000490,-0724,1376,6103,026.4,045.2,0.000,774.4,01.15,0.508
2014-02-13 01:30:00,4648E-2,5C000490,-0724,1376,6159,026.4,045.2,0.000,774.3,01.15,0.508
2014-02-13 01:31:00,4687E-2,5C000490,-0724,1376,6076,026.4,045.2,0.000,774.3,01.15,0.508
2014-02-13 01:32:00,4669E-2,5C000490,-0724,1376,6124,026.4,045.3,0.000,774.3,01.15,0.508
2014-02-13 01:33:00,4705E-2,5C000490,-0724,1376,6008,026.4,045.3,0.000,774.3,01.15,0.508
2014-02-13 01:34:00,4707E-2,5C000490,-0724,1376,6126,026.4,045.2,0.000,774.4,01.15,0.508
2014-02-13 01:35:00,4650E-2,5C000490,-0724,1376,6085,026.4,045.2,0.000,774.4,01.15,0.508
2014-02-13 01:36:00,4625E-2,5C000490,-0724,1376,6029,026.4,045.2,0.000,774.4,01.15,0.508
2014-02-13 01:37:00,4643E-2,5C000490,-0724,1376,6134,026.4,045.3,0.000,774.4,01.15,0.508
2014-02-13 01:38:00,4709E-2,5C000490,-0724,1376,6105,026.4,045.2,0.000,774.4,01.15,0.508
2014-02-13 01:39:00,4621E-2,5C000490,-0724,1376,5993,026.4,045.2,0.000,774.4,01.15,0.508
2014-02-13 01:40:00,4654E-2,5C000490,-0724,1376,5913,026.4,045.2,0.000,774.4,01.15,0.508
2014-02-13 01:41:00,4672E-2,5C000490,-0724,1376,6007,026.4,045.2,0.000,774.4,01.15,0.508
2014-02-13 01:42:00,4637E-2,5C000490,-0724,1376,5970,026.4,045.2,0.000,774.4,01.15,0.508
2014-02-13 01:43:00,4711E-2,5C000490,-0724,1376,5991,026.5,045.2,0.000,774.4,01.15,0.508
2014-02-13 01:44:00,4701E-2,5C000490,-0724,1376,6012,026.5,045.3,0.000,774.4,01.15,0.508
2014-02-13 01:45:00,4751E-2,5C000490,-0724,1376,6078,026.5,045.2,0.000,774.4,01.15,0.508
2014-02-13 01:46:00,4759E-2,5C000490,-0724,1376,5999,026.5,045.3,0.000,774.4,01.15,0.508
2014-02-13 01:47:00,4705E-2,5C000490,-0724,1376,6074,026.4,045.2,0.000,774.4,01.15,0.508
2014-02-13 01:48:00,4674E-2,5C000490,-0724,1376,5999,026.4,045.2,0.000,774.4,01.15,0.508
2014-02-13 01:49:00,4734E-2,5C000490,-0724,1376,6018,026.5,045.3,0.000,774.4,01.15,0.508
2014-02-13 01:50:00,4751E-2,5C000490,-0724,1376,5992,026.5,045.3,0.000,774.4,01.15,0.508
2014-02-13 01:51:00,4756E-2,5C000490,-0724,1376,5916,026.4,045.2,0.000,774.4,01.15,0.508
2014-02-13 01:52:00,4757E-2,5C000490,-0724,1376,5912,026.5,045.2,0.000,774.4,01.15,0.508
2014-02-13 01:53:00,4777E-2,5C000490,-0724,1376,5982,026.5,045.2,0.000,774.4,01.15,0.508
2014-02-13 01:54:00,4726E-2,5C000490,-0724,1376,5990,026.5,045.2,0.000,774.4,01.15,0.508
2014-02-13 01:55:00,4724E-2,5C000490,-0724,1376,5924,026.5,045.2,0.000,774.4,01.15,0.508
2014-02-13 01:56:00,4745E-2,5C000490,-0724,1376,6023,026.5,045.3,0.000,774.4,01.15,0.508
2014-02-13 01:57:00,4742E-2,5C000490,-0724,1376,6005,026.5,045.3,0.000,774.4,01.15,0.508
2014-02-13 01:58:00,4670E-2,5C000490,-0724,1376,6000,026.5,045.3,0.000,774.3,01.15,0.508
2014-02-13 01:59:00,4739E-2,5C000490,-0724,1376,5990,026.5,045.3,0.000,774.4,01.15,0.508
2014-02-13 02:00:00,4748E-2,5C000490,-0724,1376,6050,026.5,045.3,0.000,774.4,01.15,0.508
2014-02-13 02:01:00,4700E-2,5C000490,-0724,1376,6017,026.5,045.2,0.000,774.4,01.15,0.508
2014-02-13 02:02:00,4761E-2,5C000490,-0724,1376,5990,026.5,045.2,0.000,774.4,01.15,0.508
2014-02-13 02:03:00,4710E-2,5C000490,-0724,1376,5917,026.5,045.2,0.000,774.4,01.15,0.508
2014-02-13 02:04:00,4747E-2,5C000490,-0724,1376,5992,026.5,045.2,0.000,774.4,01.15,0.508
2014-02-13 02:05:00,4712E-2,5C000490,-0724,1376,5938,026.5,045.2,0.000,774.4,01.15,0.508
2014-02-13 02:06:00,4724E-2,5C000490,-0724,1376,6026,026.5,045.2,0.000,774.4,01.15,0.508
2014-02-13 02:07:00,4730E-2,5C000490,-0724,1376,6034,026.5,045.3,0.000,774.4,01.15,0.508
2014-02-13 02:08:00,4690E-2,5C000490,-0724,1376,5959,026.5,045.3,0.000,774.4,01.15,0.508
2014-02-13 02:09:00,4745E-2,5C000490,-0724,1376,5932,026.5,045.3,0.000,774.4,01.15,0.508
2014-02-13 02:10:00,4674E-2,5C000490,-0724,1376,5935,026.5,045.2,0.000,774.4,01.15,0.508
2014-02-13 02:11:00,4665E-2,5C000490,-0724,1376,5909,026.5,045.3,0.000,774.4,01.15,0.508
2014-02-13 02:12:00,4686E-2,5C000490,-0724,1376,6022,026.5,045.3,0.000,774.4,01.15,0.508
2014-02-13 02:13:00,4704E-2,5C000490,-0724,1376,6031,026.5,045.2,0.000,774.4,01.15,0.508
2014-02-13 02:14:00,4740E-2,5C000490,-0724,1376,5955,026.5,045.2,0.000,774.4,01.15,0.508
2014-02-13 02:15:00,4653E-2,5C000490,-0724,1376,5801,026.5,045.2,0.000,774.5,01.15,0.508
2014-02-13 02:16:00,4674E-2,5C000490,-0724,1376,5907,026.5,045.3,0.000,774.4,01.15,0.508
2014-02-13 02:17:00,4686E-2,5C000490,-0724,1376,5860,026.5,045.2,0.000,774.4,01.15,0.508
2014-02-13 02:18:00,4716E-2,5C000490,-0724,1376,5991,026.5,045.2,0.000,774.4,01.15,0.508
2014-02-13 02:19:00,4688E-2,5C000490,-0724,1376,5944,026.5,045.3,0.000,774.4,01.15,0.508
2014-02-13 02:20:00,4664E-2,5C000490,-0724,1376,5979,026.5,045.3,0.000,774.4,01.15,0.508
2014-02-13 02:21:00,4659E-2,5C000490,-0724,1376,5991,026.5,045.2,0.000,774.4,01.15,0.508
2014-02-13 02:22:00,4666E-2,5C000490,-0724,1376,5965,026.5,045.3,0.000,774.4,01.15,0.508
2014-02-13 02:23:00,4662E-2,5C000490,-0724,1376,5974,026.5,045.3,0.000,774.4,01.15,0.508
2014-02-13 02:24:00,4703E-2,5C000490,-0724,1376,5932,026.5,045.2,0.000,774.5,01.15,0.508
2014-02-13 02:25:00,4712E-2,5C000490,-0724,1376,5959,026.5,045.2,0.000,774.5,01.15,0.508
2014-02-13 02:26:00,4659E-2,5C000490,-0724,1376,5961,026.5,045.3,0.000,774.5,01.15,0.508
2014-02-13 02:27:00,4720E-2,5C000490,-0724,1376,5963,026.5,045.3,0.000,774.5,01.15,0.508
2014-02-13 02:28:00,4706E-2,5C000490,-0724,1376,5985,026.5,045.3,0.000,774.5,01.15,0.508
2014-02-13 02:29:00,4765E-2,5C000490,-0724,1376,5934,026.5,045.2,0.000,774.4,01.15,0.508
2014-02-13 02:30:00,4687E-2,5C000490,-0724,1376,5937,026.5,045.3,0.000,774.4,01.15,0.508
2014-02-13 02:31:00,4715E-2,5C000490,-0724,1376,5860,026.5,045.2,0.000,774.4,01.15,0.508
2014-02-13 02:32:00,4768E-2,5C000490,-0724,1376,5935,026.6,045.3,0.000,774.4,01.15,0.508
2014-02-13 02:33:00,4730E-2,5C000490,-0724,1376,6061,026.6,045.2,0.000,774.4,01.15,0.508
2014-02-13 02:34:00,4737E-2,5C000490,-0724,1376,6046,026.6,045.3,0.000,774.4,01.15,0.508
2014-02-13 02:35:00,4750E-2,5C000490,-0724,1376,6055,026.6,045.2,0.000,774.4,01.15,0.508
2014-02-13 02:36:00,4708E-2,5C000490,-0724,1376,6050,026.6,045.3,0.000,774.3,01.15,0.508
2014-02-13 02:37:00,4688E-2,5C000490,-0724,1376,5996,026.6,045.3,0.000,774.3,01.15,0.508
2014-02-13 02:38:00,4763E-2,5C000490,-0724,1376,5969,026.6,045.3,0.000,774.3,01.15,0.508
2014-02-13 02:39:00,4711E-2,5C000490,-0724,1376,6027,026.6,045.3,0.000,774.3,01.15,0.508
2014-02-13 02:40:00,4733E-2,5C000490,-0724,1376,5971,026.6,045.3,0.000,774.3,01.15,0.508
2014-02-13 02:41:00,4679E-2,5C000490,-0724,1376,5938,026.6,045.3,0.000,774.3,01.15,0.508
2014-02-13 02:42:00,4674E-2,5C000490,-0724,1376,5950,026.6,045.3,0.000,774.3,01.15,0.508
2014-02-13 02:43:00,4709E-2,5C000490,-0724,1376,5919,026.6,045.3,0.000,774.3,01.15,0.508
2014-02-13 02:44:00,4684E-2,5C000490,-0724,1376,5943,026.6,045.3,0.000,774.3,01.15,0.508
2014-02-13 02:45:00,4675E-2,5C000490,-0724,1376,5943,026.6,045.3,0.000,774.3,01.15,0.508
2014-02-13 02:46:00,4661E-2,5C000490,-0724,1376,5851,026.6,045.3,0.000,774.3,01.15,0.508
2014-02-13 02:47:00,4706E-2,5C000490,-0724,1376,5895,026.6,045.3,0.000,774.3,01.15,0.508
2014-02-13 02:48:00,4685E-2,5C000490,-0724,1376,5927,026.6,045.2,0.000,774.3,01.15,0.508
2014-02-13 02:49:00,4737E-2,5C000490,-0724,1376,5921,026.6,045.3,0.000,774.3,01.15,0.508
2014-02-13 02:50:00,4682E-2,5C000490,-0724,1376,5857,026.6,045.3,0.000,774.3,01.15,0.508
2014-02-13 02:51:00,4676E-2,5C000490,-0724,1376,5854,026.6,045.3,0.000,774.3,01.15,0.508
2014-02-13 02:52:00,4705E-2,5C000490,-0724,1376,5896,026.6,045.3,0.000,774.2,01.15,0.508
2014-02-13 02:53:00,4661E-2,5C000490,-0724,1376,5807,026.6,045.3,0.000,774.2,01.15,0.508
2014-02-13 02:54:00,4711E-2,5C000490,-0724,1376,5896,026.6,045.3,0.000,774.2,01.15,0.508
2014-02-13 02:55:00,4698E-2,5C000490,-0724,1376,5844,026.6,045.3,0.000,774.2,01.15,0.508
2014-02-13 02:56:00,4674E-2,5C000490,-0724,1376,5819,026.6,045.3,0.000,774.2,01.15,0.508
2014-02-13 02:57:00,4646E-2,5C000490,-0724,1376,5781,026.6,045.3,0.000,774.3,01.15,0.508
2014-02-13 02:58:00,4682E-2,5C000490,-0724,1376,5758,026.6,045.3,0.000,774.2,01.15,0.508
2014-02-13 02:59:00,4737E-2,5C000490,-0724,1376,5809,026.6,045.3,0.000,774.2,01.15,0.508
2014-02-13 03:00:00,4717E-2,5C000490,-0724,1376,5832,026.7,045.3,0.000,774.3,01.15,0.508
2014-02-13 03:01:00,4739E-2,5C000490,-0724,1376,5816,026.6,045.3,0.000,774.3,01.15,0.508
2014-02-13 03:02:00,4662E-2,5C000490,-0724,1376,5867,026.7,045.3,0.000,774.3,01.15,0.508
2014-02-13 03:03:00,4633E-2,5C000490,-0724,1376,5754,026.7,045.3,0.000,774.2,01.15,0.508
2014-02-13 03:04:00,4576E-2,5C000490,-0724,1376,5869,026.6,045.3,0.000,774.2,01.15,0.508
2014-02-13 03:05:00,4585E-2,5C000490,-0724,1376,5784,026.7,045.2,0.000,774.3,01.15,0.508
2014-02-13 03:06:00,4623E-2,5C000490,-0724,1376,5897,026.7,045.3,0.000,774.2,01.15,0.508
2014-02-13 03:07:00,4602E-2,5C000490,-0724,1376,5793,026.7,045.3,0.000,774.2,01.15,0.508
2014-02-13 03:08:00,4566E-2,5C000490,-0724,1376,5835,026.7,045.3,0.000,774.2,01.15,0.508
2014-02-13 03:09:00,4570E-2,5C000490,-0724,1376,5823,026.7,045.3,0.000,774.2,01.15,0.508
2014-02-13 03:10:00,4568E-2,5C000490,-0724,1376,5822,026.7,045.3,0.000,774.2,01.15,0.508
2014-02-13 03:11:00,4584E-2,5C000490,-0724,1376,5804,026.7,045.3,0.000,774.2,01.15,0.508
2014-02-13 03:12:00,4583E-2,5C000490,-0724,1376,5758,026.7,045.3,0.000,774.1,01.15,0.508
2014-02-13 03:13:00,4576E-2,5C000490,-0724,1376,5793,026.7,045.3,0.000,774.1,01.15,0.508
2014-02-13 03:14:00,4610E-2,5C000490,-0724,1376,5791,026.7,045.2,0.000,774.1,01.15,0.508
2014-02-13 03:15:00,4606E-2,5C000490,-0724,1376,5780,026.7,045.3,0.000,774.1,01.15,0.508
2014-02-13 03:16:00,4574E-2,5C000490,-0724,1376,5763,026.7,045.3,0.000,774.1,01.15,0.508
2014-02-13 03:17:00,4619E-2,5C000490,-0724,1376,5770,026.7,045.3,0.000,774.1,01.15,0.508
2014-02-13 03:18:00,4573E-2,5C000490,-0724,1376,5748,026.7,045.3,0.000,774.1,01.15,0.508
2014-02-13 03:19:00,4575E-2,5C000490,-0724,1376,5785,026.7,045.3,0.000,774.1,01.15,0.508
2014-02-13 03:20:00,4618E-2,5C000490,-0724,1376,5702,026.7,045.3,0.000,774.2,01.15,0.508
2014-02-13 03:21:00,4550E-2,5C000490,-0724,1376,5691,026.7,045.3,0.000,774.2,01.15,0.508
2014-02-13 03:22:00,4615E-2,5C000490,-0724,1376,5759,026.7,045.2,0.000,774.2,01.15,0.508
2014-02-13 03:23:00,4534E-2,5C000490,-0724,1376,5717,026.7,045.3,0.000,774.2,01.15,0.508
2014-02-13 03:24:00,4536E-2,5C000490,-0724,1376,5682,026.7,045.2,0.000,774.2,01.15,0.508
2014-02-13 03:25:00,4567E-2,5C000490,-0724,1376,5684,026.7,045.2,0.000,774.2,01.15,0.508
2014-02-13 03:26:00,4528E-2,5C000490,-0724,1376,5732,026.7,045.2,0.000,774.2,01.15,0.508
2014-02-13 03:27:00,4588E-2,5C000490,-0724,1376,5720,026.7,045.3,0.000,774.1,01.15,0.508
2014-02-13 03:28:00,4577E-2,5C000490,-0724,1376,5660,026.7,045.2,0.000,774.2,01.15,0.508
2014-02-13 03:29:00,4525E-2,5C000490,-0724,1376,5753,026.7,045.2,0.000,774.2,01.15,0.508
2014-02-13 03:30:00,4554E-2,5C000490,-0724,1376,5664,026.7,045.3,0.000,774.2,01.15,0.508
2014-02-13 03:31:00,4553E-2,5C000490,-0724,1376,5689,026.7,045.3,0.000,774.2,01.15,0.508
2014-02-13 03:32:00,4536E-2,5C000490,-0724,1376,5691,026.7,045.3,0.000,774.2,01.15,0.508
2014-02-13 03:33:00,4543E-2,5C000490,-0724,1376,5601,026.7,045.2,0.000,774.1,01.15,0.508
2014-02-13 03:34:00,4579E-2,5C000490,-0724,1376,5709,026.7,045.3,0.000,774.1,01.15,0.508
2014-02-13 03:35:00,4533E-2,5C000490,-0724,1376,5671,026.8,045.2,0.000,774.1,01.15,0.508
2014-02-13 03:36:00,4573E-2,5C000490,-0724,1376,5592,026.8,045.2,0.000,774.1,01.15,0.508
2014-02-13 03:37:00,4559E-2,5C000490,-0724,1376,5618,026.8,045.3,0.000,774.2,01.15,0.508
2014-02-13 03:38:00,4515E-2,5C000490,-0724,1376,5598,026.7,045.3,0.000,774.2,01.15,0.508
2014-02-13 03:39:00,4545E-2,5C000490,-0724,1376,5586,026.8,045.3,0.000,774.2,01.15,0.508
2014-02-13 03:40:00,4575E-2,5C000490,-0724,1376,5636,026.8,045.3,0.000,774.1,01.15,0.508
2014-02-13 03:41:00,4558E-2,5C000490,-0724,1376,5589,026.8,045.3,0.000,774.2,01.15,0.508
2014-02-13 03:42:00,4607E-2,5C000490,-0724,1376,5610,026.8,045.3,0.000,774.1,01.15,0.508
2014-02-13 03:43:00,4538E-2,5C000490,-0724,1376,5655,026.8,045.3,0.000,774.1,01.15,0.508
2014-02-13 03:44:00,4574E-2,5C000490,-0724,1376,5637,026.8,045.3,0.000,774.1,01.15,0.508
2014-02-13 03:45:00,4562E-2,5C000490,-0724,1376,5704,026.8,045.3,0.000,774.1,01.15,0.508
2014-02-13 03:46:00,4616E-2,5C000490,-0724,1376,5709,026.8,045.2,0.000,774.1,01.15,0.508
2014-02-13 03:47:00,4605E-2,5C000490,-0724,1376,5614,026.8,045.2,0.000,774.1,01.15,0.508
2014-02-13 03:48:00,4616E-2,5C000490,-0724,1376,5672,026.8,045.3,0.000,774.1,01.15,0.508
2014-02-13 03:49:00,4572E-2,5C000490,-0724,1376,5712,026.8,045.3,0.000,774.1,01.15,0.508
2014-02-13 03:50:00,4596E-2,5C000490,-0724,1376,5779,026.8,045.3,0.000,774.1,01.15,0.508
2014-02-13 03:51:00,4553E-2,5C000490,-0724,1376,5686,026.8,045.3,0.000,774.1,01.15,0.508
2014-02-13 03:52:00,4544E-2,5C000490,-0724,1376,5667,026.8,045.3,0.000,774.1,01.15,0.508
2014-02-13 03:53:00,4583E-2,5C000490,-0724,1376,5623,026.8,045.2,0.000,774.1,01.15,0.508
2014-02-13 03:54:00,4619E-2,5C000490,-0724,1376,5659,026.8,045.2,0.000,774.1,01.15,0.508
2014-02-13 03:55:00,4594E-2,5C000490,-0724,1376,5712,026.8,045.3,0.000,774.1,01.15,0.508
2014-02-13 03:56:00,4596E-2,5C000490,-0724,1376,5673,026.8,045.3,0.000,774.1,01.15,0.508
2014-02-13 03:57:00,4601E-2,5C000490,-0724,1376,5685,026.9,045.3,0.000,774.1,01.15,0.508
2014-02-13 03:58:00,4656E-2,5C000490,-0724,1376,5695,026.9,045.2,0.000,774.1,01.15,0.508
2014-02-13 03:59:00,4591E-2,5C000490,-0724,1376,5746,026.9,045.3,0.000,774.1,01.15,0.508
2014-02-13 04:00:00,4647E-2,5C000490,-0724,1376,5804,026.9,045.3,0.000,774.1,01.15,0.508
2014-02-13 04:01:00,4662E-2,5C000490,-0724,1376,5649,026.9,045.3,0.000,774.0,01.15,0.508
2014-02-13 04:02:00,4605E-2,5C000490,-0724,1376,5730,026.9,045.3,0.000,774.0,01.15,0.508
2014-02-13 04:03:00,4599E-2,5C000490,-0724,1376,5764,026.9,045.3,0.000,774.0,01.15,0.508
2014-02-13 04:04:00,4650E-2,5C000490,-0724,1376,5770,026.9,045.3,0.000,774.0,01.15,0.508
2014-02-13 04:05:00,4593E-2,5C000490,-0724,1376,5699,026.9,045.3,0.000,774.0,01.15,0.508
2014-02-13 04:06:00,4615E-2,5C000490,-0724,1376,5774,026.9,045.3,0.000,774.1,01.15,0.508
2014-02-13 04:07:00,4617E-2,5C000490,-0724,1376,5797,026.9,045.3,0.000,774.1,01.15,0.508
2014-02-13 04:08:00,4640E-2,5C000490,-0724,1376,5815,026.9,045.3,0.000,774.1,01.15,0.508
2014-02-13 04:09:00,4585E-2,5C000490,-0724,1376,5789,026.9,045.3,0.000,774.1,01.15,0.508
2014-02-13 04:10:00,4642E-2,5C000490,-0724,1376,5756,026.9,045.3,0.000,774.1,01.15,0.508
2014-02-13 04:11:00,4589E-2,5C000490,-0724,1376,5667,026.9,045.2,0.000,774.1,01.15,0.508
2014-02-13 04:12:00,4600E-2,5C000490,-0724,1376,5789,026.9,045.3,0.000,774.0,01.15,0.508
2014-02-13 04:13:00,4642E-2,5C000490,-0724,1376,5683,026.9,045.3,0.000,774.0,01.15,0.508
2014-02-13 04:14:00,4623E-2,5C000490,-0724,1376,5739,026.9,045.3,0.000,774.1,01.15,0.508
2014-02-13 04:15:00,4620E-2,5C000480,-0724,1347,11836,026.9,045.3,0.000,774.1,01.15,0.508
2014-02-13 04:16:00,5402E-2,5C000410,-0724,1080,9887,026.9,045.3,0.000,774.1,01.15,0.508
2014-02-13 04:17:00,5010E-2,5C000410,-0724,1077,9731,026.9,045.2,0.000,774.1,01.15,0.508
2014-02-13 04:18:00,4980E-2,5C000410,-0724,1084,9493,026.9,045.3,0.000,774.1,01.15,0.508
2014-02-13 04:19:00,4979E-2,5C000410,-0724,1090,9522,026.9,045.3,0.000,774.1,01.15,0.508
2014-02-13 04:20:00,4999E-2,5C000410,-0724,1096,9623,026.9,045.3,0.000,774.1,01.15,0.508
2014-02-13 04:21:00,4961E-2,5C000410,-0724,1102,9469,026.9,045.3,0.000,774.0,01.15,0.508
2014-02-13 04:22:00,4992E-2,5C000410,-0724,1106,9458,026.9,045.3,0.000,774.1,01.15,0.508
2014-02-13 04:23:00,5051E-2,5C000410,-0724,1110,9224,026.9,045.3,0.000,774.0,01.15,0.508